Zurück zum Katalog

STARLINK-2109

AktivKommunikationVLEO
NORAD 47388·PAYLOAD·🇺🇸 United States

Gestartet Jan 20, 2021 von Cape Canaveral Space Force Station

Loading…

Nächste Überflüge (nächste 24 Stunden)

TLE

AktuellSource: CelesTrak SupGP

Epoche: Sep 14, 2026, 21:34 UTC

1 47388C 21005AR  26257.89909722  .00069068  00000+0  20214-2 0  2572
2 47388  53.1571 265.2455 0004490  43.8471 341.1597 15.34644544    18

Verfolge STARLINK-2109 in Echtzeit mit AllMySat

Download on the App Store